Orbital Elements at Epoch 2459200.5 (2020-Dec-17.0) TDB
Reference: JPL 37 (heliocentric ecliptic J2000)
Element | Value | Uncertainty (1-sigma) | Units |
e | .1026273358883876 | 1.7259e-08 | |
a | 2.39188058629246 | 7.3615e-09 | au |
q | 2.14640825395811 | 4.2076e-08 | au |
i | 4.415015315007872 | 4.2264e-07 | deg |
node | 148.0352991316776 | 9.6618e-06 | deg |
peri | 319.6548984914812 | 1.2768e-05 | deg |
M | 102.5285753914708 | 6.2495e-06 | deg |
tp | 2458815.686685721666 (2019-Nov-28.18668572) | 2.3422e-05 | TDB |
period | 1351.162762295873 3.70 | 6.2377e-06 1.708e-08 | d yr |
n | .2664371828811313 | 1.23e-09 | deg/d |
Q | 2.63735291862681 | 8.117e-09 | au |
|
| | Orbit Determination Parameters
Additional Information
|